Texarkana, AR

8:38 AM CDT on May 24, 2017 (GMT -0500)
Texarkana Regional-Webb

Weather History for KTXK - February, 2014

Change the Weather History Date:

Friday, February 28, 2014

  Actual Average Record
Temperature  
Mean Temperature 43 °F 52 °F  
Max Temperature 48 °F 63 °F 84 °F (1932)
Min Temperature 37 °F 41 °F 24 °F (2002)
Degree Days  
Heating Degree Days 22 14  
Month to date heating degree days 568 473  
Since 1 July heating degree days 2468 2194  
Cooling Degree Days 0 0  
Month to date cooling degree days 0 3  
Year to date cooling degree days 0 4  
Moisture  
Dew Point 37 °F    
Average Humidity 62    
Maximum Humidity 93    
Minimum Humidity 31    
Precipitation  
Precipitation T in 0.15 in 1.52 in (1963)
Month to date precipitation 3.19 3.99  
Year to date precipitation 3.92 7.39  
Snow  
Snow 0.00 in - - ()
Month to date snowfall 1.6  
Since 1 July snowfall 1.7  
Snow Depth 0.00 in    
Sea Level Pressure  
Sea Level Pressure 29.90 in    
Wind  
Wind Speed 7 mph (ESE)    
Max Wind Speed 15 mph    
Max Gust Speed 21 mph    
Visibility 7 miles    
Events Rain    
T = Trace of Precipitation, MM = Missing Value Source: NWS Daily Summary

Daily Weather History Graph

Daily Weather History Graph

Search for Another Location

Airport or City:

Trip Planner

Search our weather history database for the weather conditions in past years. The results will help you decide how hot, cold, wet, or windy it might be!

Date:

Astronomy

Feb. 28, 2014 Rise Set
Actual Time 6:45 AM CST 6:11 PM CST
Civil Twilight 6:20 AM CST 6:36 PM CST
Nautical Twilight 5:51 AM CST 7:05 PM CST
Astronomical Twilight 5:22 AM CST 7:34 PM CST
Moon 5:59 AM CST (2/28) 5:48 PM CST (2/28)
Length of Visible Light 12h 16m
Length of Day
11h 26m
Waning Crescent, 1% of the Moon is Illuminated
Feb 28
Waning Crescent
Mar 1
New
Mar 8
First Quarter
Mar 16
Full
Mar 23
Last Quarter

Hourly Weather History & Observations

Time (CST) Temp. Windchill Dew Point Humidity Pressure Visibility Wind Dir Wind Speed Gust Speed Precip Events Conditions
12:53 AM 41.0 °F 37.1 °F 17.1 °F 38% 29.96 in 10.0 mi ESE 5.8 mph - N/A   Clear
1:53 AM 41.0 °F 34.7 °F 19.0 °F 41% 29.95 in 10.0 mi SE 10.4 mph - N/A   Clear
2:53 AM 39.9 °F 33.9 °F 21.9 °F 49% 29.93 in 10.0 mi SE 9.2 mph - N/A   Clear
3:53 AM 39.9 °F 33.9 °F 24.1 °F 53% 29.94 in 10.0 mi SE 9.2 mph - N/A   Clear
4:53 AM 37.9 °F 32.1 °F 25.0 °F 60% 29.93 in 10.0 mi SE 8.1 mph - N/A   Clear
5:53 AM 37.0 °F 29.8 °F 27.0 °F 67% 29.93 in 10.0 mi SE 10.4 mph - N/A   Clear
6:53 AM 37.0 °F 29.8 °F 28.9 °F 73% 29.92 in 10.0 mi SE 10.4 mph - N/A   Clear
7:53 AM 39.9 °F 35.8 °F 32.0 °F 73% 29.95 in 10.0 mi SSE 5.8 mph - N/A   Mostly Cloudy
8:53 AM 44.1 °F 38.6 °F 34.0 °F 68% 29.92 in 10.0 mi SE 10.4 mph - N/A   Overcast
9:53 AM 44.1 °F 39.5 °F 35.1 °F 71% 29.94 in 10.0 mi SSE 8.1 mph 18.4 mph 0.00 in Rain Light Rain
10:07 AM 44.6 °F 38.4 °F 35.6 °F 71% 29.93 in 10.0 mi SSE 12.7 mph - 0.00 in Rain Light Rain
10:53 AM 43.0 °F 36.0 °F 37.0 °F 80% 29.92 in 4.0 mi SE 13.8 mph - 0.00 in Rain Light Rain
11:32 AM 42.8 °F 38.0 °F 39.2 °F 87% 29.90 in 9.0 mi SE 8.1 mph - 0.00 in   Overcast
11:53 AM 43.0 °F 38.8 °F 39.0 °F 86% 29.89 in 6.0 mi SE 6.9 mph 17.3 mph 0.00 in   Overcast
12:09 PM 44.6 °F 40.2 °F 39.2 °F 81% 29.89 in 7.0 mi SE 8.1 mph - N/A   Overcast
12:53 PM 45.0 °F 38.5 °F 39.9 °F 82% 29.87 in 6.0 mi SE 13.8 mph 18.4 mph N/A   Haze
1:11 PM 44.6 °F 41.4 °F 41.0 °F 87% 29.87 in 1.8 mi SE 5.8 mph - N/A   Overcast
1:53 PM 45.0 °F 41.2 °F 42.1 °F 90% 29.86 in 1.8 mi SE 6.9 mph - N/A   Overcast
2:20 PM 44.6 °F 40.2 °F 42.8 °F 93% 29.85 in 2.0 mi ESE 8.1 mph - N/A   Overcast
2:53 PM 46.0 °F 43.1 °F 44.1 °F 93% 29.85 in 2.5 mi SE 5.8 mph 16.1 mph N/A   Overcast
3:12 PM 46.4 °F 44.3 °F 44.6 °F 93% 29.85 in 3.0 mi ESE 4.6 mph - N/A   Overcast
3:53 PM 46.0 °F 43.1 °F 43.0 °F 89% 29.86 in 3.0 mi East 5.8 mph - N/A   Overcast
4:53 PM 46.0 °F 42.5 °F 44.1 °F 93% 29.86 in 5.0 mi ESE 6.9 mph - N/A   Overcast
5:53 PM 46.0 °F 43.9 °F 44.1 °F 93% 29.86 in 7.0 mi East 4.6 mph - N/A   Overcast
6:53 PM 46.0 °F 43.1 °F 43.0 °F 89% 29.87 in 8.0 mi East 5.8 mph - N/A   Overcast
7:19 PM 46.4 °F 44.3 °F 44.6 °F 93% 29.87 in 8.0 mi East 4.6 mph - N/A   Overcast
7:53 PM 46.0 °F 44.8 °F 43.0 °F 89% 29.89 in 9.0 mi East 3.5 mph - N/A   Overcast
8:53 PM 46.9 °F - 44.1 °F 90% 29.91 in 10.0 mi East 3.5 mph - N/A   Overcast
9:53 PM 46.9 °F - 44.1 °F 90% 29.94 in 10.0 mi ENE 5.8 mph - N/A   Overcast
10:53 PM 48.0 °F - 44.1 °F 86% 29.94 in 10.0 mi East 4.6 mph - N/A   Overcast
11:39 PM 48.2 °F - 44.6 °F 87% 29.95 in 7.0 mi ENE 4.6 mph - N/A   Overcast
11:53 PM 46.9 °F - 44.1 °F 90% 29.95 in 8.0 mi East 3.5 mph - N/A   Overcast